Back to catalog

DELTA 1 DEB

AliveSSO
NORAD 7155·DEBRIS·🇺🇸 United States

Launched Nov 6, 1973 from Vandenberg Space Force Base

Loading…

Next Passes (next 24 hours)

TLE

FreshSource: Space-Track

Epoch: Sep 14, 2026, 05:53 UTC

1 07155U 73086DU  26257.24543711  .00000113  00000-0  11568-2 0  9999
2 07155 102.3630 171.4257 0129418 353.9542 159.7271 12.40427388386916

Track DELTA 1 DEB in real time with AllMySat

Download on the App Store